Beverly, MA

8:22 PM EDT on March 25, 2017 (GMT -0400)
Beverly Municipal

Weather History for KBVY - January, 2013

Change the Weather History Date:

Sunday, January 6, 2013

  Actual Average Record
Temperature  
Mean Temperature 32 °F -  
Max Temperature 42 °F 33 °F 45 °F (2016)
Min Temperature 21 °F 19 °F 8 °F (2015)
Degree Days  
Heating Degree Days 34    
Moisture  
Dew Point 23 °F    
Average Humidity 68    
Maximum Humidity 82    
Minimum Humidity 51    
Precipitation  
Precipitation 0.00 in - - ()
Sea Level Pressure  
Sea Level Pressure 30.02 in    
Wind  
Wind Speed 4 mph (West)    
Max Wind Speed 14 mph    
Max Gust Speed 21 mph    
Visibility 9 miles    
Events Snow    
Averages and records for this station are not official NWS values.
T = Trace of Precipitation, MM = Missing Value Source: NWS Daily Summary

Daily Weather History Graph

Daily Weather History Graph

Search for Another Location

Airport or City:

Trip Planner

Search our weather history database for the weather conditions in past years. The results will help you decide how hot, cold, wet, or windy it might be!

Date:

Astronomy

Jan. 06, 2013 Rise Set
Actual Time 7:13 AM EST 4:26 PM EST
Civil Twilight 6:41 AM EST 4:57 PM EST
Nautical Twilight 6:06 AM EST 5:33 PM EST
Astronomical Twilight 5:32 AM EST 6:07 PM EST
Moon 1:21 AM EST (1/6) 11:53 AM EST (1/6)
Length of Visible Light 10h 15m
Length of Day
9h 12m
Waning Crescent, 33% of the Moon is Illuminated
Jan 6
Waning Crescent
Jan 11
New
Jan 18
First Quarter
Jan 26
Full
Feb 3
Last Quarter

Hourly Weather History & Observations

Time (EST) Temp. Windchill Dew Point Humidity Pressure Visibility Wind Dir Wind Speed Gust Speed Precip Events Conditions
12:53 AM 21.9 °F 17.2 °F 15.1 °F 75% 30.17 in 10.0 mi NNW 3.5 mph - N/A   Clear
1:53 AM 25.0 °F 20.7 °F 17.1 °F 72% 30.19 in 10.0 mi NNW 3.5 mph - N/A   Clear
2:53 AM 25.0 °F - 18.0 °F 75% 30.18 in 10.0 mi Calm Calm - N/A   Clear
3:53 AM 26.1 °F - 19.0 °F 75% 30.13 in 10.0 mi Calm Calm - N/A   Overcast
4:53 AM 27.0 °F - 19.9 °F 75% 30.12 in 10.0 mi Calm Calm - N/A   Overcast
5:30 AM 26.6 °F - 19.4 °F 74% 30.11 in 2.0 mi Calm Calm - 0.00 in Snow Light Snow
5:48 AM 26.6 °F - 21.2 °F 80% 30.10 in 3.0 mi Calm Calm - 0.00 in Snow Light Snow
5:53 AM 27.0 °F - 21.0 °F 78% 30.09 in 3.0 mi Calm Calm - 0.00 in Snow Light Snow
6:16 AM 28.4 °F 24.6 °F 23.0 °F 80% 30.09 in 9.0 mi SSW 3.5 mph - 0.00 in   Overcast
6:53 AM 28.4 °F 24.6 °F 23.0 °F 80% 30.08 in 7.0 mi SW 3.5 mph - N/A Snow Light Snow
7:53 AM 28.9 °F - 24.1 °F 82% 30.06 in 10.0 mi Calm Calm - 0.00 in   Overcast
8:53 AM 32.0 °F 24.8 °F 26.1 °F 79% 30.04 in 10.0 mi SW 8.1 mph - N/A   Overcast
9:53 AM 35.1 °F 25.9 °F 26.1 °F 70% 30.03 in 10.0 mi SW 13.8 mph - N/A   Clear
10:53 AM 37.0 °F 28.5 °F 25.0 °F 62% 30.00 in 10.0 mi SW 13.8 mph 20.7 mph N/A   Clear
11:53 AM 39.0 °F 32.8 °F 25.0 °F 57% 29.96 in 10.0 mi West 9.2 mph 18.4 mph N/A   Clear
12:53 PM 41.0 °F 34.7 °F 25.0 °F 53% 29.93 in 10.0 mi WSW 10.4 mph - N/A   Clear
1:53 PM 42.1 °F 35.7 °F 25.0 °F 51% 29.93 in 10.0 mi WNW 11.5 mph - N/A   Clear
2:53 PM 42.1 °F 35.7 °F 25.0 °F 51% 29.93 in 10.0 mi West 11.5 mph 18.4 mph N/A   Clear
3:53 PM 41.0 °F 35.8 °F 25.0 °F 53% 29.92 in 10.0 mi WNW 8.1 mph - N/A   Clear
4:53 PM 37.9 °F 35.5 °F 24.1 °F 57% 29.93 in 10.0 mi West 3.5 mph - N/A   Clear
5:53 PM 35.1 °F 31.0 °F 24.1 °F 64% 29.94 in 10.0 mi WSW 4.6 mph - N/A   Scattered Clouds
6:53 PM 35.1 °F - 24.1 °F 64% 29.95 in 10.0 mi Calm Calm - N/A   Overcast
7:53 PM 33.1 °F - 25.0 °F 72% 29.95 in 10.0 mi Calm Calm - N/A   Overcast
8:53 PM 35.6 °F - 24.8 °F 65% 29.95 in 9.0 mi Calm Calm - N/A   Overcast
9:53 PM 36.0 °F - 25.0 °F 64% 29.94 in 10.0 mi Calm Calm - N/A   Overcast
10:53 PM 35.1 °F - 25.0 °F 67% 29.94 in 10.0 mi Calm Calm - N/A   Overcast
11:53 PM 34.0 °F 29.8 °F 25.0 °F 70% 29.94 in 10.0 mi WSW 4.6 mph - N/A   Overcast